Terug naar catalogus

FENGYUN 1C DEB

ActiefSSO
NORAD 29788·DEBRIS·🇨🇳 China

Gelanceerd May 10, 1999 vanaf Taiyuan Satellite Launch Center

Loading…

Volgende Passages (komende 24 uur)

TLE

VersSource: Space-Track

Epoch: Sep 14, 2026, 03:29 UTC

1 29788U 99025CE  26257.14552212  .00002149  00000-0  88089-3 0  9995
2 29788  98.7681 334.5609 0042339 109.9674 279.1159 14.27703756 12843

Volg FENGYUN 1C DEB in realtime met AllMySat

Download on the App Store